TAY4RQ EPKT-ESMS

Flight info

Callsign TAY4RQ
Flight time 1h 10m
Altitude 36000
Route LUMVE L619 NUDRO L617 ADVAB L619 VABAT DCT BINKA M602 KOGIM M44 ARGAD Z400 BAKLI
Aircraft B738/M-SBDE2FGHIJ1RWY/HB1

Departure

Time 2026-04-26 14:53
Airport Katowice Wojciech Korfanty International Airport (EPKT)

Arrival

Time 2026-04-26 16:04
Airport Malmö Sturup Airport (ESMS)
Time Latitude Longitude Altitude Speed Heading
2026-04-26 14:20 50.47143 19.09642 997 ft 0 kts 180°
2026-04-26 14:42 50.47162 19.09642 997 ft 3 kts 180°
2026-04-26 14:42 50.47181 19.09642 1000 ft 3 kts 180°
2026-04-26 14:43 50.47200 19.09642 999 ft 3 kts 167°
2026-04-26 14:43 50.47217 19.09629 1001 ft 3 kts 134°
2026-04-26 14:43 50.47227 19.09605 997 ft 3 kts 101°
2026-04-26 14:43 50.47228 19.09575 998 ft 3 kts 90°
2026-04-26 14:44 50.47228 19.09572 997 ft 0 kts 90°
2026-04-26 14:48 50.47228 19.09573 997 ft 1 kts 90°
2026-04-26 14:48 50.47229 19.09610 998 ft 7 kts 89°
2026-04-26 14:49 50.47229 19.09733 1001 ft 14 kts 90°
2026-04-26 14:49 50.47229 19.09890 999 ft 14 kts 90°
2026-04-26 14:49 50.47246 19.10039 1001 ft 14 kts 60°
2026-04-26 14:49 50.47320 19.10192 1001 ft 13 kts 51°
2026-04-26 14:50 50.47357 19.10267 997 ft 13 kts 52°
2026-04-26 14:50 50.47401 19.10356 998 ft 7 kts 52°
2026-04-26 14:50 50.47409 19.10372 998 ft 0 kts 52°
2026-04-26 14:51 50.47411 19.10376 998 ft 2 kts 51°
2026-04-26 14:51 50.47443 19.10426 1001 ft 10 kts 34°
2026-04-26 14:51 50.47517 19.10448 1002 ft 11 kts
2026-04-26 14:51 50.47582 19.10435 1002 ft 8 kts 326°
2026-04-26 14:52 50.47595 19.10373 997 ft 0 kts 270°
2026-04-26 14:53 50.47595 19.10308 1000 ft 19 kts 270°
2026-04-26 14:53 50.47598 19.09663 1002 ft 98 kts 270°
2026-04-26 14:53 50.47614 19.08279 1192 ft 141 kts 277°
2026-04-26 14:53 50.47616 19.06718 1979 ft 145 kts 276°
2026-04-26 14:54 50.47615 19.05187 2867 ft 143 kts 277°
2026-04-26 14:54 50.47621 19.03582 3606 ft 150 kts 277°
2026-04-26 14:54 50.47625 19.01916 4393 ft 155 kts 277°
2026-04-26 14:54 50.47625 19.00131 4986 ft 174 kts 276°
2026-04-26 14:55 50.47628 18.98151 5592 ft 189 kts 275°
2026-04-26 14:55 50.47631 18.95988 6044 ft 207 kts 275°
2026-04-26 14:55 50.47644 18.93597 6387 ft 232 kts 274°
2026-04-26 14:55 50.47627 18.90951 6907 ft 251 kts 273°
2026-04-26 14:56 50.47586 18.88146 7627 ft 261 kts 273°
2026-04-26 14:56 50.47539 18.85276 8563 ft 264 kts 274°
2026-04-26 14:56 50.47493 18.82379 9532 ft 267 kts 275°
2026-04-26 14:56 50.47449 18.79452 10487 ft 270 kts 275°
2026-04-26 14:57 50.47410 18.76384 10892 ft 295 kts 276°
2026-04-26 14:57 50.47369 18.73072 11201 ft 318 kts 275°
2026-04-26 14:57 50.47319 18.69512 11742 ft 334 kts 275°
2026-04-26 14:57 50.47263 18.65837 12521 ft 339 kts 275°
2026-04-26 14:58 50.47207 18.62149 13565 ft 338 kts 276°
2026-04-26 14:58 50.47561 18.58569 14464 ft 328 kts 296°
2026-04-26 14:58 50.48645 18.55473 15385 ft 323 kts 309°
2026-04-26 14:58 50.50170 18.52907 16276 ft 322 kts 321°
2026-04-26 14:59 50.51920 18.50690 17152 ft 325 kts 323°
2026-04-26 14:59 50.53712 18.48481 18011 ft 329 kts 323°
2026-04-26 14:59 50.55489 18.46258 18811 ft 333 kts 322°
2026-04-26 14:59 50.56710 18.44713 19304 ft 335 kts 322°
2026-04-26 15:00 50.59119 18.41646 20372 ft 337 kts 322°
2026-04-26 15:00 50.60946 18.39312 21114 ft 340 kts 321°
2026-04-26 15:00 50.62793 18.36948 21770 ft 345 kts 321°
2026-04-26 15:00 50.64666 18.34550 22419 ft 349 kts 321°
2026-04-26 15:01 50.66557 18.32125 23079 ft 353 kts 321°
2026-04-26 15:01 50.68469 18.29672 23718 ft 357 kts 321°
2026-04-26 15:01 50.70403 18.27188 24256 ft 360 kts 321°
2026-04-26 15:01 50.72351 18.24684 24795 ft 363 kts 320°
2026-04-26 15:02 50.74207 18.21969 25317 ft 366 kts 311°
2026-04-26 15:02 50.75787 18.18801 25844 ft 368 kts 308°
2026-04-26 15:02 50.77303 18.15590 26350 ft 371 kts 308°
2026-04-26 15:02 50.78844 18.12299 26847 ft 374 kts 307°
2026-04-26 15:03 50.80398 18.08990 27298 ft 376 kts 307°
2026-04-26 15:03 50.81976 18.05650 27644 ft 382 kts 307°
2026-04-26 15:03 50.83582 18.02270 28064 ft 386 kts 307°
2026-04-26 15:03 50.85200 17.98873 28560 ft 387 kts 307°
2026-04-26 15:04 50.86828 17.95460 29027 ft 389 kts 307°
2026-04-26 15:04 50.88463 17.92035 29448 ft 392 kts 307°
2026-04-26 15:04 50.90111 17.88578 29896 ft 393 kts 307°
2026-04-26 15:04 50.91740 17.85157 30807 ft 382 kts 307°
2026-04-26 15:05 50.93307 17.81863 31475 ft 378 kts 306°
2026-04-26 15:05 50.94376 17.79614 31683 ft 380 kts 306°
2026-04-26 15:05 50.96499 17.75139 32064 ft 385 kts 306°
2026-04-26 15:05 50.98104 17.71752 32514 ft 383 kts 306°
2026-04-26 15:06 50.99709 17.68361 32889 ft 386 kts 306°
2026-04-26 15:06 51.01324 17.64941 33198 ft 388 kts 306°
2026-04-26 15:06 51.02942 17.61514 33685 ft 386 kts 306°
2026-04-26 15:06 51.04543 17.58117 34202 ft 384 kts 306°
2026-04-26 15:07 51.07742 17.51316 34879 ft 385 kts 306°
2026-04-26 15:07 51.09344 17.47901 35210 ft 386 kts 306°
2026-04-26 15:07 51.10928 17.44526 35558 ft 386 kts 306°
2026-04-26 15:08 51.12554 17.41054 35896 ft 386 kts 306°
2026-04-26 15:08 51.14154 17.37696 36217 ft 387 kts 309°
2026-04-26 15:08 51.18310 17.32060 36251 ft 398 kts 323°
2026-04-26 15:09 51.23317 17.28312 36264 ft 397 kts 334°
2026-04-26 15:09 51.28476 17.25262 36267 ft 394 kts 335°
2026-04-26 15:10 51.32808 17.22672 36261 ft 391 kts 334°
2026-04-26 15:10 51.38659 17.19113 36258 ft 390 kts 334°
2026-04-26 15:11 51.43690 17.16030 36264 ft 390 kts 334°
2026-04-26 15:11 51.48772 17.12911 36265 ft 392 kts 334°
2026-04-26 15:12 51.53870 17.09775 36269 ft 393 kts 334°
2026-04-26 15:12 51.58988 17.06619 36254 ft 394 kts 334°
2026-04-26 15:13 51.64110 17.03452 36268 ft 395 kts 334°
2026-04-26 15:13 51.69217 17.00288 36267 ft 396 kts 334°
2026-04-26 15:14 51.74368 16.97084 36264 ft 397 kts 334°
2026-04-26 15:14 51.79521 16.93866 36287 ft 397 kts 334°
2026-04-26 15:15 51.84679 16.90638 36267 ft 397 kts 334°
2026-04-26 15:15 51.89776 16.87440 36263 ft 395 kts 334°
2026-04-26 15:16 51.94883 16.84228 36268 ft 393 kts 334°
2026-04-26 15:16 51.99970 16.81019 36265 ft 392 kts 333°
2026-04-26 15:17 52.04186 16.78354 36267 ft 391 kts 333°
2026-04-26 15:17 52.10085 16.74617 36274 ft 391 kts 333°
2026-04-26 15:18 52.14852 16.70566 36271 ft 383 kts 320°
2026-04-26 15:18 52.19023 16.65192 36268 ft 382 kts 318°
2026-04-26 15:19 52.23186 16.59796 36269 ft 383 kts 319°
2026-04-26 15:19 52.27364 16.54401 36273 ft 383 kts 319°
2026-04-26 15:20 52.31552 16.48994 36263 ft 384 kts 318°
2026-04-26 15:20 52.35749 16.43565 36275 ft 386 kts 318°
2026-04-26 15:21 52.39965 16.38097 36272 ft 387 kts 318°
2026-04-26 15:21 52.44163 16.32638 36274 ft 389 kts 318°
2026-04-26 15:22 52.48404 16.27111 36287 ft 390 kts 318°
2026-04-26 15:22 52.52648 16.21568 36286 ft 390 kts 318°
2026-04-26 15:23 52.56774 16.15797 36270 ft 389 kts 315°
2026-04-26 15:23 52.60741 16.09736 36281 ft 389 kts 314°
2026-04-26 15:24 52.64764 16.03547 36290 ft 390 kts 314°
2026-04-26 15:24 52.68642 15.97597 36288 ft 390 kts 314°
2026-04-26 15:25 52.71974 15.92491 36284 ft 390 kts 314°
2026-04-26 15:25 52.76582 15.85421 36289 ft 388 kts 314°
2026-04-26 15:26 52.80524 15.79355 36271 ft 387 kts 314°
2026-04-26 15:26 52.84468 15.73273 36283 ft 387 kts 314°
2026-04-26 15:27 52.88376 15.67229 36287 ft 387 kts 314°
2026-04-26 15:27 52.92309 15.61129 36286 ft 388 kts 314°
2026-04-26 15:28 52.96254 15.54996 36298 ft 389 kts 314°
2026-04-26 15:28 53.00201 15.48843 36303 ft 390 kts 314°
2026-04-26 15:29 53.04153 15.42667 36294 ft 390 kts 314°
2026-04-26 15:30 53.12031 15.30306 36303 ft 391 kts 314°
2026-04-26 15:30 53.15984 15.24079 36305 ft 392 kts 314°
2026-04-26 15:31 53.21920 15.14698 36302 ft 392 kts 314°
2026-04-26 15:32 53.27188 15.06339 36301 ft 392 kts 314°
2026-04-26 15:32 53.31780 14.99028 36316 ft 393 kts 314°
2026-04-26 15:33 53.35732 14.92720 36310 ft 392 kts 314°
2026-04-26 15:33 53.39673 14.86412 36305 ft 391 kts 314°
2026-04-26 15:34 53.43599 14.80108 36307 ft 390 kts 314°
2026-04-26 15:34 53.47488 14.73850 36319 ft 390 kts 314°
2026-04-26 15:35 53.51397 14.67541 36318 ft 389 kts 314°
2026-04-26 15:35 53.55294 14.61235 36307 ft 389 kts 314°
2026-04-26 15:36 53.59390 14.54588 36320 ft 389 kts 314°
2026-04-26 15:36 53.63093 14.48563 36329 ft 391 kts 314°
2026-04-26 15:37 53.67003 14.42184 36320 ft 391 kts 314°
2026-04-26 15:37 53.70915 14.35783 36317 ft 392 kts 314°
2026-04-26 15:38 53.74830 14.29364 36319 ft 392 kts 314°
2026-04-26 15:38 53.78747 14.23037 36312 ft 392 kts 315°
2026-04-26 15:39 53.80744 14.19883 36071 ft 396 kts 315°
2026-04-26 15:39 53.82762 14.16698 35519 ft 396 kts 314°
2026-04-26 15:39 53.84768 14.13523 34896 ft 394 kts 314°
2026-04-26 15:39 53.86091 14.11422 34426 ft 394 kts 314°
2026-04-26 15:40 53.88763 14.07164 33374 ft 394 kts 314°
2026-04-26 15:40 53.90747 14.03994 32809 ft 389 kts 314°
2026-04-26 15:40 53.92704 14.00867 32247 ft 384 kts 314°
2026-04-26 15:40 53.94639 13.97768 31753 ft 380 kts 314°
2026-04-26 15:41 53.96546 13.94706 31229 ft 375 kts 314°
2026-04-26 15:41 53.98424 13.91676 30717 ft 371 kts 314°
2026-04-26 15:41 54.00281 13.88673 30196 ft 366 kts 314°
2026-04-26 15:41 54.02115 13.85704 29635 ft 362 kts 314°
2026-04-26 15:42 54.03899 13.82815 29132 ft 356 kts 314°
2026-04-26 15:42 54.05680 13.79928 28602 ft 353 kts 314°
2026-04-26 15:42 54.07465 13.77027 28077 ft 355 kts 314°
2026-04-26 15:42 54.09273 13.74203 27545 ft 352 kts 318°
2026-04-26 15:43 54.11265 13.71806 27037 ft 351 kts 326°
2026-04-26 15:43 54.13427 13.69887 26529 ft 350 kts 329°
2026-04-26 15:43 54.17775 13.66257 25535 ft 347 kts 330°
2026-04-26 15:44 54.19939 13.64438 25052 ft 347 kts 330°
2026-04-26 15:44 54.24196 13.60825 24089 ft 342 kts 330°
2026-04-26 15:44 54.26319 13.59013 23523 ft 340 kts 330°
2026-04-26 15:45 54.30510 13.55473 22463 ft 333 kts 333°
2026-04-26 15:45 54.32701 13.54193 21987 ft 332 kts 341°
2026-04-26 15:46 54.37246 13.52930 21031 ft 328 kts 347°
2026-04-26 15:46 54.39503 13.52391 20420 ft 329 kts 347°
2026-04-26 15:46 54.41762 13.51839 19879 ft 328 kts 347°
2026-04-26 15:46 54.43253 13.51469 19551 ft 326 kts 347°
2026-04-26 15:47 54.46207 13.50723 18933 ft 322 kts 347°
2026-04-26 15:47 54.50613 13.49720 17908 ft 319 kts 352°
2026-04-26 15:47 54.52849 13.49852 17299 ft 324 kts 359°
2026-04-26 15:48 54.55083 13.50209 16805 ft 321 kts
2026-04-26 15:48 54.57299 13.50585 16331 ft 318 kts
2026-04-26 15:48 54.59492 13.50956 15879 ft 315 kts
2026-04-26 15:48 54.61663 13.51315 15433 ft 312 kts
2026-04-26 15:49 54.63811 13.51665 15003 ft 309 kts
2026-04-26 15:49 54.65942 13.52007 14579 ft 306 kts
2026-04-26 15:49 54.68056 13.52344 14160 ft 304 kts
2026-04-26 15:49 54.70148 13.52676 13710 ft 301 kts
2026-04-26 15:50 54.72227 13.53005 13260 ft 298 kts
2026-04-26 15:50 54.74256 13.53327 12838 ft 295 kts
2026-04-26 15:50 54.76289 13.53649 12449 ft 292 kts
2026-04-26 15:50 54.78297 13.53968 12063 ft 289 kts
2026-04-26 15:51 54.80290 13.54284 11658 ft 286 kts
2026-04-26 15:51 54.82267 13.54598 11250 ft 284 kts
2026-04-26 15:51 54.84230 13.54909 10846 ft 282 kts
2026-04-26 15:51 54.86180 13.55219 10447 ft 280 kts
2026-04-26 15:52 54.88096 13.55526 10292 ft 272 kts
2026-04-26 15:52 54.89966 13.55825 10157 ft 269 kts
2026-04-26 15:52 54.91786 13.56055 10017 ft 261 kts 355°
2026-04-26 15:52 54.92992 13.55852 9795 ft 256 kts 348°
2026-04-26 15:53 54.95296 13.55071 9324 ft 254 kts 346°
2026-04-26 15:53 54.97019 13.54438 8985 ft 252 kts 346°
2026-04-26 15:53 54.98727 13.53823 8655 ft 250 kts 346°
2026-04-26 15:53 55.00424 13.53225 8338 ft 248 kts 346°
2026-04-26 15:54 55.02112 13.52641 8015 ft 246 kts 346°
2026-04-26 15:54 55.03789 13.52069 7714 ft 245 kts 346°
2026-04-26 15:54 55.05460 13.51504 7399 ft 244 kts 346°
2026-04-26 15:54 55.07122 13.50943 7089 ft 243 kts 346°
2026-04-26 15:55 55.08758 13.50392 6784 ft 243 kts 346°
2026-04-26 15:55 55.10444 13.49824 6471 ft 250 kts 346°
2026-04-26 15:55 55.12158 13.49248 6133 ft 251 kts 346°
2026-04-26 15:55 55.13865 13.48677 5799 ft 249 kts 346°
2026-04-26 15:56 55.15559 13.48110 5474 ft 247 kts 345°
2026-04-26 15:56 55.17236 13.47548 5169 ft 244 kts 345°
2026-04-26 15:56 55.18895 13.46991 4901 ft 240 kts 345°
2026-04-26 15:56 55.20498 13.46454 4807 ft 230 kts 345°
2026-04-26 15:57 55.22036 13.45937 4706 ft 221 kts 345°
2026-04-26 15:57 55.23521 13.45437 4565 ft 215 kts 345°
2026-04-26 15:57 55.24960 13.44950 4358 ft 213 kts 345°
2026-04-26 15:57 55.25939 13.44618 4215 ft 212 kts 345°
2026-04-26 15:58 55.27860 13.43968 4004 ft 212 kts 345°
2026-04-26 15:58 55.29313 13.43476 3843 ft 212 kts 346°
2026-04-26 15:58 55.30742 13.42993 3692 ft 205 kts 346°
2026-04-26 15:58 55.32099 13.42536 3537 ft 193 kts 346°
2026-04-26 15:59 55.33380 13.42104 3391 ft 182 kts 346°
2026-04-26 15:59 55.34589 13.41696 3278 ft 171 kts 345°
2026-04-26 15:59 55.35725 13.41321 3176 ft 161 kts 347°
2026-04-26 15:59 55.36790 13.41086 3075 ft 152 kts 349°
2026-04-26 16:00 55.37846 13.40874 2993 ft 153 kts 349°
2026-04-26 16:00 55.38891 13.40661 2924 ft 148 kts 349°
2026-04-26 16:00 55.39931 13.40445 2775 ft 153 kts 349°
2026-04-26 16:00 55.40990 13.40228 2561 ft 153 kts 349°
2026-04-26 16:01 55.42041 13.40012 2342 ft 151 kts 350°
2026-04-26 16:01 55.43083 13.39796 2139 ft 151 kts 351°
2026-04-26 16:01 55.44136 13.39580 1931 ft 153 kts 351°
2026-04-26 16:01 55.45187 13.39363 1717 ft 151 kts 351°
2026-04-26 16:02 55.46228 13.39147 1513 ft 148 kts 351°
2026-04-26 16:02 55.47198 13.38949 1297 ft 134 kts 351°
2026-04-26 16:02 55.48094 13.38765 1105 ft 130 kts 351°
2026-04-26 16:02 55.48705 13.38640 993 ft 131 kts 350°
2026-04-26 16:03 55.49897 13.38393 746 ft 127 kts 350°
2026-04-26 16:03 55.50777 13.38208 587 ft 128 kts 352°
2026-04-26 16:03 55.51657 13.38025 405 ft 127 kts 352°
2026-04-26 16:03 55.52520 13.37850 250 ft 122 kts 351°
2026-04-26 16:04 55.53244 13.37700 239 ft 77 kts 353°
2026-04-26 16:04 55.53615 13.37623 237 ft 45 kts 353°
2026-04-26 16:04 55.53894 13.37566 239 ft 36 kts 354°
2026-04-26 16:04 55.54056 13.37532 241 ft 15 kts 353°
2026-04-26 16:05 55.54162 13.37510 239 ft 16 kts 353°
2026-04-26 16:05 55.54216 13.37467 238 ft 6 kts 301°
2026-04-26 16:05 55.54219 13.37354 235 ft 13 kts 263°
2026-04-26 16:05 55.54195 13.37227 231 ft 11 kts 212°
2026-04-26 16:06 55.54117 13.37226 232 ft 12 kts 173°
2026-04-26 16:06 55.54031 13.37243 231 ft 10 kts 174°
2026-04-26 16:06 55.53969 13.37198 231 ft 10 kts 245°
2026-04-26 16:06 55.53958 13.37072 230 ft 9 kts 263°
2026-04-26 16:07 55.53948 13.36996 232 ft 3 kts 230°
2026-04-26 16:07 55.53925 13.36987 230 ft 4 kts 180°
2026-04-26 16:07 55.53893 13.36994 233 ft 5 kts 173°
2026-04-26 16:07 55.53866 13.36999 230 ft 0 kts 173°